ONEWEB-0257 (48975 NORAD) Tracking and Keplerian Element Data

This shows tracking and keplerian element data for the satellite.

Feedback or suggestion? Click here.




ElementValue
Catalog48975
NameONEWEB-0257
Epoch Orbit1387
Epoch Day269.25001157
Epoch Year2021
RAAN211.9218
Inclination87.9276
Eccentricity0.0009173
Argument of Perigee342.589
Mean Anonmoly89.1968
Mean Motion13.3763868
Decay Rate1.4E-07
L11 48975U 21060J 21269.25001157 .00000014 00000-0 00000+0 0 9997
L22 48975 87.9276 211.9218 0009173 342.5890 89.1968 13.37638680 13874

Live tracking and technical data element details for ONEWEB-0257 (NORAD 48975). ONEWEB-0257 can be tracked NOW for your location showing map with azimuth and elevation plus other details from your city location.

Track the satellite on the map from your city or location and see movement details for azimuth, elevation, latitude, longitude, range, height, and movement on the map or in text.







IsCatalogInMostPopularTable: catalog: 48975, numindb: 19
Update: records affected: 1



GetName: 48975 ONEWEB-0257

Hit Count: updated at: Sun, 26 Sep 2021 15:34:23 GMT